CST,Max TemperatureF,Mean TemperatureF,Min TemperatureF,Max Dew PointF,MeanDew PointF,Min DewpointF,Max Humidity, Mean Humidity, Min Humidity, Max Sea Level PressureIn, Mean Sea Level PressureIn, Min Sea Level PressureIn, Max VisibilityMiles, Mean VisibilityMiles, Min VisibilityMiles, Max Wind SpeedMPH, Mean Wind SpeedMPH, Max Gust SpeedMPH,PrecipitationIn, CloudCover, Events, WindDirDegrees
2012-11-1,89,78,68,70,68,67,94,64,41,29.94,29.88,29.81,12,8,6,9,5,,0.00,3,,174
2012-11-2,90,79,68,73,70,66,91,66,48,29.93,29.86,29.79,12,8,6,10,6,,0.00,5,,159
2012-11-3,89,80,70,73,71,69,94,71,50,29.94,29.87,29.81,12,8,6,15,6,,0.00,6,,111
2012-11-4,90,80,70,75,71,69,94,66,43,29.91,29.85,29.77,12,8,6,13,6,,0.00,3,,66
2012-11-5,91,80,70,75,69,36,97,62,17,29.88,29.83,29.77,12,8,6,16,8,,0.00,5,Fog,84
2012-11-6,91,79,67,72,68,64,94,62,33,29.89,29.84,29.79,12,8,6,16,6,,0.00,6,,110
2012-11-7,91,81,71,70,68,66,88,60,37,29.88,29.84,29.79,12,8,6,18,9,,0.00,6,,78
2012-11-8,91,82,72,70,69,66,83,62,43,29.92,29.85,29.78,12,8,6,13,8,,0.00,5,,218
2012-11-9,84,78,72,70,67,64,78,64,48,29.90,29.83,29.76,12,8,6,10,7,,0.00,6,Rain,232
2012-11-10,87,79,71,70,69,66,83,64,47,29.86,29.82,29.77,12,8,6,21,11,,0.00,5,,101
2012-11-11,91,82,73,72,69,68,78,61,42,29.91,29.84,29.78,12,8,6,17,8,,0.00,3,,66
2012-11-12,91,80,70,72,69,66,94,62,42,29.90,29.83,29.77,12,8,6,16,8,,0.00,2,,92
2012-11-13,91,81,71,72,70,66,88,64,43,29.92,29.85,29.79,12,8,6,21,10,,0.00,2,Rain,74
2012-11-14,91,80,69,68,67,64,88,59,38,29.94,29.87,29.81,12,9,6,9,4,,0.00,7,,214
2012-11-15,86,76,67,69,67,64,94,66,43,29.94,29.88,29.83,12,12,12,8,5,,0.00,8,,259
2012-11-16,92,77,62,68,66,61,94,60,31,29.94,29.88,29.82,12,9,6,10,4,,0.00,1,,258
2012-11-17,93,80,68,70,67,66,94,56,35,29.95,29.89,29.83,12,9,6,17,6,,0.00,1,,152
2012-11-18,90,79,68,70,63,58,94,53,27,29.97,29.90,29.85,12,12,12,20,7,28,0.00,,,89
2012-11-19,90,78,66,68,63,57,83,54,24,29.94,29.87,29.80,12,12,12,16,7,,0.00,,,96
2012-11-20,92,80,69,68,67,66,88,57,36,29.88,29.82,29.77,12,8,6,17,7,,0.00,3,,197
2012-11-21,89,80,71,72,67,64,78,60,35,29.91,29.84,29.76,12,8,6,14,8,,0.00,7,,208
2012-11-22,89,79,69,66,65,63,83,58,36,29.94,29.88,29.83,12,12,12,12,7,,0.00,8,,210
2012-11-23,90,77,64,66,63,61,94,54,32,29.92,29.86,29.80,12,10,6,14,6,,0.00,1,,37
2012-11-24,89,76,64,63,60,57,73,48,27,29.94,29.85,29.76,12,12,12,16,6,,0.00,,,112
2012-11-25,89,78,66,66,62,59,78,51,31,29.90,29.84,29.78,12,12,12,21,9,,0.00,,,178
2012-11-26,90,80,70,70,67,64,83,57,38,29.92,29.85,29.79,12,7,6,21,11,,0.00,5,,76
2012-11-27,92,82,72,72,71,70,83,61,42,29.90,29.84,29.76,12,8,6,17,10,28,0.00,5,,72
2012-11-28,88,80,73,74,71,68,94,73,48,29.97,29.90,29.81,12,7,5,21,9,33,0.01,6,Rain,81
2012-11-29,85,78,71,70,68,66,83,65,50,29.95,29.89,29.84,12,7,6,21,10,,0.00,6,,79
2012-11-30,86,77,68,70,68,66,91,70,53,29.96,29.90,29.85,12,7,6,14,5,,0.01,6,,67